Tracking 30918 objects as of 2-Jul-2025
HD Live streaming from Space Station
objects crossing your sky now

STARLINK-32043

Track STARLINK-32043 now!
10-day predictions
STARLINK-32043 is classified as:


NORAD ID: 60135
Int'l Code: 2024-120A
Perigee: 481.6 km
Apogee: 483.1 km
Inclination: 53.2 °
Period: 94.1 minutes
Semi major axis: 6853 km
RCS: Unknown
Launch date: June 27, 2024
Source: United States (US)
Launch site: AIR FORCE EASTERN TEST RANGE (AFETR)
Your satellite tracking list
OSCAR 30 DEB
Track 1 satellite(s)




NASA's NSSDC Master Catalog

Two Line Element Set (TLE):
1 60135U 24120A   25182.98855736 -.00000121  00000-0  80286-5 0  9997
2 60135  53.1612  44.3404 0001093  94.3800 265.7326 15.30191576 57855
Source of the keplerian elements: AFSPC